Location: Unnamed
(42.1164°N, 2.7652°E)
Time: 15:01:37
(UTC+02:00)

ISS - Visible Passes

Search period start: 25 May 2020 00:00
Search period end: 04 June 2020 00:00
Orbit: 417 x 420 km, 51.6° (Epoch: 25 May)

Date Brightness Start Highest point End Pass type
(mag) Time Alt. Az. Time Alt. Az. Time Alt. Az.
25 May -1.9 00:45:30 10° NW 00:47:37 31° NNW 00:47:37 31° NNW visible
25 May -0.9 22:21:03 10° NW 22:23:16 16° N 22:25:30 10° NE visible
25 May -2.2 23:57:48 10° NW 00:00:50 30° NNE 00:01:21 29° NE visible
26 May -1.6 23:10:05 10° NW 23:12:53 23° NNE 23:15:07 13° ENE visible
27 May -1.6 00:46:36 10° WNW 00:48:01 23° WNW 00:48:01 23° WNW visible
27 May -1.4 22:22:21 10° NW 22:24:53 19° NNE 22:27:26 10° ENE visible
27 May -3.2 23:58:48 10° NW 00:01:48 59° N 00:01:48 59° N visible
28 May -2.8 23:11:03 10° NW 23:14:17 42° NNE 23:15:35 28° E visible
29 May -0.9 00:48:04 10° WNW 00:48:31 13° W 00:48:31 13° W visible
29 May -2.2 22:23:19 10° NW 22:26:21 30° NNE 22:29:23 10° E visible
30 May -2.5 00:00:00 10° WNW 00:02:20 35° W 00:02:20 35° W visible
30 May -3.8 23:12:05 10° WNW 23:15:27 79° SW 23:16:11 51° SE visible
31 May -3.5 22:24:15 10° NW 22:27:35 64° NNE 22:30:04 17° ESE visible
01 Jun -1.3 00:01:52 10° W 00:02:59 14° WSW 00:02:59 14° WSW visible
01 Jun -2.4 23:13:27 10° WNW 23:16:21 27° SW 23:16:55 25° SSW visible
02 Jun -3.1 22:25:20 10° WNW 22:28:35 46° SW 22:30:52 17° SSE visible
